Multibeam Report for AT26-31


Ship Name: Atlantis
Chief Scientist: None
Source Organization: Rolling Deck to Repository
Start Date: 2015-03-28
End Date: 2015-04-19


View ISO Metadata

Visit the full NCEI Bathymetry Viewer


Multibeam Bathymetry

Cruise Details

Project: Transit
Instrument: Kongsberg EM122

Data Quality

Number of Files: 71
Number of Records: 23894
BATHYMETRY DATA Quantity Percentage
Number of Beams 10322208 100%
Number of Good Beams 9145604 88.6%
Number of Zero Beams 0 0%
Number of Flagged Beams 1176604 11.4%
AMPLITUDE DATA Quantity Percentage
Number of Beams 10322208 100%
Number of Good Beams 9145604 88.6%
Number of Zero Beams 0 0%
Number of Flagged Beams 1176604 11.4%
SIDESCAN DATA Quantity Percentage
Number of Pixels 24467456 100%
Number of Good Pixels 17224832 70.4%
Number of Zero Pixels 0 0%
Number of Flagged Pixels 7242624 29.6%

Navigation Totals

Total Time: 66.8548 hours
Total Track Length: 1376.592 km
Average Speed: 20.591 km/hr (11.1183 knots)

Cruise Bounds

Northern Extent: 30.527122
Southern Extent: 20.352724
Western Extent: -61.44791
Eastern Extent: -53.37772

Limits

Minimum Sonar Depth 3.181 Maximum Sonar Depth 7.8924
Minimum Altitude 4615.7549 Maximum Altitude 6612.0625
Minimum Depth 4187.4736 Maximum Depth 6881.1836
Minimum Amplitude 0 Maximum Amplitude 6.5
Minimum Sidescan 0 Maximum Sidescan 6.63

File Information

Full Resolution Bathymetry as collected (raw): 68

Files File Size Description
0000_20150412_184725_Atlantis.all.mb58.gz 17.83MB Kongsberg multibeam vendor format
0001_20150412_194737_Atlantis.all.mb58.gz 17.52MB Kongsberg multibeam vendor format
0002_20150412_204730_Atlantis.all.mb58.gz 17.78MB Kongsberg multibeam vendor format
0003_20150412_214730_Atlantis.all.mb58.gz 17.20MB Kongsberg multibeam vendor format
0004_20150412_224739_Atlantis.all.mb58.gz 17.87MB Kongsberg multibeam vendor format
0005_20150412_234727_Atlantis.all.mb58.gz 17.52MB Kongsberg multibeam vendor format
0006_20150413_004731_Atlantis.all.mb58.gz 17.57MB Kongsberg multibeam vendor format
0007_20150413_014733_Atlantis.all.mb58.gz 17.02MB Kongsberg multibeam vendor format
0008_20150413_024741_Atlantis.all.mb58.gz 17.02MB Kongsberg multibeam vendor format
0009_20150413_034723_Atlantis.all.mb58.gz 17.14MB Kongsberg multibeam vendor format
0010_20150413_044732_Atlantis.all.mb58.gz 17.23MB Kongsberg multibeam vendor format
0011_20150413_054722_Atlantis.all.mb58.gz 17.43MB Kongsberg multibeam vendor format
0012_20150413_064732_Atlantis.all.mb58.gz 17.23MB Kongsberg multibeam vendor format
0013_20150413_074739_Atlantis.all.mb58.gz 16.66MB Kongsberg multibeam vendor format
0014_20150413_084728_Atlantis.all.mb58.gz 17.28MB Kongsberg multibeam vendor format
0015_20150413_094734_Atlantis.all.mb58.gz 16.69MB Kongsberg multibeam vendor format
0016_20150413_104734_Atlantis.all.mb58.gz 16.46MB Kongsberg multibeam vendor format
0017_20150413_114733_Atlantis.all.mb58.gz 17.41MB Kongsberg multibeam vendor format
0018_20150413_124736_Atlantis.all.mb58.gz 16.90MB Kongsberg multibeam vendor format
0019_20150413_134732_Atlantis.all.mb58.gz 16.63MB Kongsberg multibeam vendor format
0020_20150413_144736_Atlantis.all.mb58.gz 17.15MB Kongsberg multibeam vendor format
0021_20150413_154742_Atlantis.all.mb58.gz 16.72MB Kongsberg multibeam vendor format
0022_20150413_164728_Atlantis.all.mb58.gz 16.97MB Kongsberg multibeam vendor format
0023_20150413_174723_Atlantis.all.mb58.gz 16.98MB Kongsberg multibeam vendor format
0024_20150413_184740_Atlantis.all.mb58.gz 16.45MB Kongsberg multibeam vendor format
0025_20150413_194722_Atlantis.all.mb58.gz 16.29MB Kongsberg multibeam vendor format
0026_20150413_204725_Atlantis.all.mb58.gz 16.62MB Kongsberg multibeam vendor format
0027_20150413_214740_Atlantis.all.mb58.gz 16.00MB Kongsberg multibeam vendor format
0028_20150413_224729_Atlantis.all.mb58.gz 16.59MB Kongsberg multibeam vendor format
0029_20150413_234738_Atlantis.all.mb58.gz 16.40MB Kongsberg multibeam vendor format
0030_20150414_004725_Atlantis.all.mb58.gz 16.53MB Kongsberg multibeam vendor format
0031_20150414_014728_Atlantis.all.mb58.gz 16.01MB Kongsberg multibeam vendor format
0032_20150414_024724_Atlantis.all.mb58.gz 16.53MB Kongsberg multibeam vendor format
0033_20150414_034727_Atlantis.all.mb58.gz 16.67MB Kongsberg multibeam vendor format
0034_20150414_044734_Atlantis.all.mb58.gz 16.49MB Kongsberg multibeam vendor format
0035_20150414_054742_Atlantis.all.mb58.gz 16.12MB Kongsberg multibeam vendor format
0036_20150414_064728_Atlantis.all.mb58.gz 16.63MB Kongsberg multibeam vendor format
0037_20150414_074726_Atlantis.all.mb58.gz 16.80MB Kongsberg multibeam vendor format
0038_20150414_084739_Atlantis.all.mb58.gz 16.47MB Kongsberg multibeam vendor format
0039_20150414_094723_Atlantis.all.mb58.gz 16.20MB Kongsberg multibeam vendor format
0040_20150414_104722_Atlantis.all.mb58.gz 16.38MB Kongsberg multibeam vendor format
0041_20150414_114728_Atlantis.all.mb58.gz 16.17MB Kongsberg multibeam vendor format
0042_20150414_124729_Atlantis.all.mb58.gz 16.05MB Kongsberg multibeam vendor format
0043_20150414_134732_Atlantis.all.mb58.gz 16.10MB Kongsberg multibeam vendor format
0044_20150414_144725_Atlantis.all.mb58.gz 16.57MB Kongsberg multibeam vendor format
0045_20150414_154722_Atlantis.all.mb58.gz 16.54MB Kongsberg multibeam vendor format
0046_20150414_164723_Atlantis.all.mb58.gz 16.74MB Kongsberg multibeam vendor format
0047_20150414_174732_Atlantis.all.mb58.gz 16.27MB Kongsberg multibeam vendor format
0048_20150414_184732_Atlantis.all.mb58.gz 16.60MB Kongsberg multibeam vendor format
0049_20150414_194722_Atlantis.all.mb58.gz 16.80MB Kongsberg multibeam vendor format
0050_20150414_204725_Atlantis.all.mb58.gz 16.06MB Kongsberg multibeam vendor format
0051_20150414_214722_Atlantis.all.mb58.gz 16.68MB Kongsberg multibeam vendor format
0052_20150414_224733_Atlantis.all.mb58.gz 16.33MB Kongsberg multibeam vendor format
0053_20150414_234738_Atlantis.all.mb58.gz 16.13MB Kongsberg multibeam vendor format
0054_20150415_004734_Atlantis.all.mb58.gz 16.12MB Kongsberg multibeam vendor format
0055_20150415_014735_Atlantis.all.mb58.gz 16.27MB Kongsberg multibeam vendor format
0056_20150415_024743_Atlantis.all.mb58.gz 16.43MB Kongsberg multibeam vendor format
0057_20150415_034726_Atlantis.all.mb58.gz 16.32MB Kongsberg multibeam vendor format
0058_20150415_044732_Atlantis.all.mb58.gz 16.48MB Kongsberg multibeam vendor format
0059_20150415_054725_Atlantis.all.mb58.gz 16.16MB Kongsberg multibeam vendor format
0060_20150415_064740_Atlantis.all.mb58.gz 16.66MB Kongsberg multibeam vendor format
0061_20150415_074724_Atlantis.all.mb58.gz 16.28MB Kongsberg multibeam vendor format
0062_20150415_084732_Atlantis.all.mb58.gz 16.39MB Kongsberg multibeam vendor format
0063_20150415_094736_Atlantis.all.mb58.gz 16.70MB Kongsberg multibeam vendor format
0064_20150415_104741_Atlantis.all.mb58.gz 17.83MB Kongsberg multibeam vendor format
0065_20150415_114736_Atlantis.all.mb58.gz 17.05MB Kongsberg multibeam vendor format
0066_20150415_124731_Atlantis.all.mb58.gz 17.23MB Kongsberg multibeam vendor format
0067_20150415_134732_Atlantis.all.mb58.gz 4.30MB Kongsberg multibeam vendor format

Metadata Files: 2

Files File Size Description
AT26-31_Multibeam.xml NGDC created ISO metadata
em122_bag_info.tar.gz 6.4KB Additional cruise information

Water Column Sonar Data

Water Column Sonar Data Available: WCSD Map Viewer